{"data":{"norad_id":65938,"intl_designator":"2025-226A","name":"2025-226A","alt_names":[],"object_type":"PAYLOAD","status":"ACTIVE","operator":null,"country":"PRC","launch_date":"2025-10-11","launch_site_code":"YSLA","launch_vehicle":null,"mission":null,"orbit_class":"UNKNOWN","rcs_meters":null,"size_class":null,"mass_kg":null,"dimensions":null,"purposes":[],"wikipedia_slug":null,"has_3d_model":false,"image_url":null,"decayed_at":null,"tle_current":{"epoch":"2026-05-24T04:47:39.701184Z","epoch_age_seconds":154675,"freshness":"FRESH","line1":"1 65938U 25226A   26144.19976506  .00005437  00000+0  28655-3 0  9995","line2":"2 65938  97.6437 224.4840 0012896 223.9141 136.1068 15.15945482 34063","mean_motion":15.15945482,"eccentricity":0.0012896,"inclination_deg":97.6437,"raan_deg":224.484,"arg_perigee_deg":223.9141,"mean_anomaly_deg":136.1068,"bstar":0.00028655,"rev_number":3406,"period_min":94.990223401715,"perigee_km":509.2162498771,"apogee_km":527.00304923564,"semimajor_km":6896.2466495564,"source":"CELESTRAK","updated_at":"2026-05-25T13:38:05.842723Z"}}}